User: anonymous   Login
Location: Griffin Ranch
(33.6186°N, 110.6622°W)
Time: 21:22:17
(UTC-07:00)
Language:

Cosmos 1812 - Orbit

View from above orbital plane
View from above orbital plane
View from above satellite
View from above satellite

Ground track
Ground track

The orbit data is extracted from the following two-line orbital elements,

1 17295U 87003A   16205.83919059  .00000551  00000-0  28782-4 0  9992
2 17295  82.5154 107.8879 0003594 158.5692 201.5691 15.13850788609272
Epoch (UTC): 23 July 2016 20:08:26
Eccentricity: 0.0003594
inclination: 82.5154°
perigee height: 522 km
apogee height: 527 km
right ascension of ascending node: 107.8879°
argument of perigee: 158.5692°
revolutions per day: 15.13850788
mean anomaly at epoch: 201.5691°
orbit number at epoch: 60927

The dashed part of the orbit path shows where the satellite is in the earth's shadow,  

DLR